Starlink 2610

operational
NORAD ID: 48376 Int'l Des: 2021-038 Owner: SPXS Country: US Constellation: starlink
LEOCIRCULAR

About Starlink 2610

Description loading...

Live Position

Loading 3D Globe...

Upcoming Passes

Altitude History

Altitude vs Time

uPlot chart will show altitude changes over time

Two-Line Element Set

1 48376U 21038Z 26093.70286142 .00002110 00000-0 83354-4 0 9993
2 48376 53.1598 231.6161 0001064 57.5753 302.5350 15.30190237271058
Epoch: Apr 3, 2026 • Age: 11 hours

Current Status

Altitude 481.2 km
Velocity 7.63 km/s
Sub-Earth Point 53.29°N, 65.56°E
Launch Date May 4, 2021
Age 4.9 years
Type internet

Technical Details

Classification Payload
Mass 260.00 kg
Dry Mass 248.00 kg
Total Mass 260.00 kg
Length 0.20 m
Diameter 2.80 m
Span 9.00 m
Shape Box + pan
Manufacturer SPXS
Bus Type Starlink
Phase Status In Orbit
Owner/State SPXS/US

Large Constellations

Loading constellations...